Regional Weather Roundup
Issued by NWS Newport/Morehead, NC

Current Version | Previous Version | Graphics & Text | Print | Product List | Glossary Off
Versions: 1 2 3 4 5 6 7 8 9 10 11 12 13 14 15 16 17 18 19 20 21 22 23 24 25 26 27 28 29 30 31 32 33 34 35 36 37 38 39 40 41 42 43 44 45 46 47 48 49 50

000
ASUS42 KMHX 021013
RWRMHX
WEATHER ROUNDUP FOR EASTERN NORTH CAROLINA
NATIONAL WEATHER SERVICE NEWPORT/MOREHEAD CITY NC
600 AM EDT THU JUL 02 2015

NOTE: "FAIR" INDICATES FEW OR NO CLOUDS BELOW 12,000 FEET
WITH NO SIGNIFICANT WEATHER AND/OR OBSTRUCTIONS TO VISIBILITY

NCZ015>017-031-032-045>047-102-103-021100-
NORTH COAST

CITY           SKY/WX    TMP DP  RH WIND       PRES   REMARKS
EDENTON        NOT AVBL
ELIZABETH CITY PTCLDY    75  72  90 S7        29.90R
KITTY HAWK     NOT AVBL
MANTEO         NOT AVBL

$$

NCZ045>047-081-094-103-104-021100-
CENTRAL COAST

CITY           SKY/WX    TMP DP  RH WIND       PRES   REMARKS
FRISCO         CLEAR     79  75  87 SW9       29.94S
SWANQUARTER      N/A     79 N/A N/A SW10G17   29.88S

$$

NCZ095-097-098-100-101-021100-
SOUTHERN COAST

CITY           SKY/WX    TMP DP  RH WIND       PRES   REMARKS
BEAUFORT       CLEAR     79  76  90 SW10      29.93S
CEDAR ISLAND     N/A     77 N/A N/A S7        29.97S
JACKSONVILLE   PTCLDY    74  70  87 SW5       29.92S
PINEY ISLAND   SUNNY    N/A N/A N/A S6        29.93S
WILMINGTON     PTCLDY    77  71  82 SW8       29.94S


$$

NCZ011>013-027>030-043-044-078>080-089-090>093-098-021100-
COASTAL PLAIN

CITY           SKY/WX    TMP DP  RH WIND       PRES   REMARKS
AHOSKIE        PTCLDY    71  70  95 S3        29.89S FOG
CLINTON        NOT AVBL
ELIZABETHTOWN  NOT AVBL
GOLDSBORO      CLOUDY    75  72  88 SW5       29.89S
GREENVILLE     CLOUDY    77  72  83 SW8       29.93S
HAVELOCK       CLOUDY    75  71  87 S3        29.94S
KENANSVILLE    NOT AVBL
KINSTON        NOT AVBL
NEW BERN       MOCLDY    75  71  87 SW6       29.93F
RICHLANDS      MOCLDY    73  66  78 SW5       29.93S
ROCKY MOUNT    CLOUDY    75  71  87 S6        29.90R
WASHINGTON     NOT AVBL
WHITEVILLE     NOT AVBL

$$

AMZ130-135-150-152-154-156-158-170-250-252-270-ANZ085-086-088-633-658-670-021100-
MARINE OBSERVATIONS

STATION/POSITION TIME  TEMP    WIND        PRES    WAVE   SWELL
                       AIR SEA DIR/SP/G            HT/PER HT/PER
                 (UTC) (F)     (DEG/KT/KT) (MB)    (FT/S) (FT/S)
CHESAPEAKE LIGHT 1000   77     210/ 16/ 17 1012.1
64 E VA BEACH    0950   77 77  220/  8/ 10 1012.0    4/ 8   3/ 8
DUCK             0900   78 65  220/ 12/ 13 1011.6
2 E DUCK         0911      71                N/A     2/ 8
OREGON INLET     0900   79 81  220/ 12/ 14 1012.9
13E OREGON INLT  1000      73                N/A     3/ 8
HATTERAS CG      0900   76 80  210/  7/  9 1013.2
DIAMOND BUOY     0950   81 83  230/ 16/ 19 1013.5    5/ 7   3/ 7
CAPE LOOKOUT     1000   79     220/  9/ 13 1013.6
BEAUFORT LAB     0900   80 81  230/  5/  9 1012.9
30 SE NEW RVR IN 0908   80 80  240/ 12/ 17 1014.4
27 SE WRIGHTSVLE 0900      80  240/ 12/ 16   N/A
5 SE WRIGHTSVLE  0908   80 80  240/ 12/ 14 1013.9
225 S CAPE HAT   0950   81 80  220/ 19/ 23 1017.7    6/ 6   2/12
41 SE CHARLESTON 0950   81 81  230/ 14/ 16 1014.6    4/ 6   2/ 8

$$



USA.gov is the U.S. government's official web portal to all federal, state and local government web resources and services.